Location: ???????
(55.3754°N, 39.3545°E)
Time: 22:44:44
(UTC+00:00)

CZ-2C R/B - Pass Details

Date: 14 April 2026
Orbit: 343 x 358 km, 97.7° (Epoch: 13 May)

Event Time Altitude Azimuth Distance (km) Brightness Sun altitude
Exits shadow 17:05:32 - 89° (E) 1,703 4.8 -6.1°
Enters shadow 18:02:14 -70° 165° (SSE) 12,352 9.6 -12.8°
Maximum altitude 18:37:58 85° 76° (ENE) 380 1.9 -16.5°
